WMT2U LATI-LMML

Flight info

Callsign WMT2U
Flight time N/A
Altitude 34000
Route DIRES DCT PAPIZ DCT ABAKO/N0455F350 DCT ERNAM DCT LORED/N0451F300 P624 GZO
Aircraft A321/M-SDE3FGHIRWY/LB1

Departure

Time 2026-05-01 15:25
Airport Tirana International Airport Mother Teresa (LATI)

Arrival

Time N/A
Airport Malta International Airport (LMML)
Time Latitude Longitude Altitude Speed Heading
2026-05-01 14:59 41.42222 19.71476 132 ft 0 kts 265°
2026-05-01 15:15 41.42230 19.71517 132 ft 4 kts 229°
2026-05-01 15:15 41.42256 19.71534 132 ft 0 kts 174°
2026-05-01 15:19 41.42250 19.71535 132 ft 2 kts 174°
2026-05-01 15:20 41.42148 19.71549 132 ft 13 kts 174°
2026-05-01 15:20 41.42042 19.71563 132 ft 17 kts 174°
2026-05-01 15:20 41.41923 19.71579 132 ft 17 kts 174°
2026-05-01 15:21 41.41801 19.71595 132 ft 18 kts 175°
2026-05-01 15:21 41.41676 19.71610 132 ft 18 kts 174°
2026-05-01 15:21 41.41547 19.71626 132 ft 19 kts 174°
2026-05-01 15:21 41.41415 19.71644 132 ft 19 kts 174°
2026-05-01 15:22 41.41141 19.71681 132 ft 20 kts 174°
2026-05-01 15:22 41.41000 19.71699 132 ft 21 kts 174°
2026-05-01 15:22 41.40855 19.71728 132 ft 21 kts 169°
2026-05-01 15:23 41.40702 19.71759 132 ft 23 kts 175°
2026-05-01 15:23 41.40544 19.71782 132 ft 23 kts 174°
2026-05-01 15:23 41.40410 19.71803 132 ft 16 kts 165°
2026-05-01 15:23 41.40315 19.71883 132 ft 16 kts 144°
2026-05-01 15:24 41.40238 19.71993 132 ft 17 kts 103°
2026-05-01 15:24 41.40245 19.72147 132 ft 15 kts 83°
2026-05-01 15:24 41.40295 19.72213 132 ft 12 kts 356°
2026-05-01 15:24 41.40453 19.72192 131 ft 50 kts 354°
2026-05-01 15:25 41.41031 19.72114 132 ft 115 kts 354°
2026-05-01 15:25 41.42003 19.71985 183 ft 159 kts 357°
2026-05-01 15:25 41.43070 19.71834 954 ft 152 kts 359°
2026-05-01 15:25 41.44133 19.71693 1574 ft 155 kts 359°
2026-05-01 15:26 41.45234 19.71552 2013 ft 167 kts 359°
2026-05-01 15:26 41.46473 19.71396 2211 ft 189 kts 358°
2026-05-01 15:26 41.47858 19.71219 2375 ft 211 kts 358°
2026-05-01 15:26 41.49406 19.71019 2537 ft 237 kts 357°
2026-05-01 15:27 41.51094 19.70794 3050 ft 248 kts 358°
2026-05-01 15:27 41.52813 19.70562 3848 ft 248 kts 359°
2026-05-01 15:27 41.54541 19.70329 4592 ft 252 kts 358°
2026-05-01 15:28 41.58107 19.69852 5981 ft 263 kts 357°
2026-05-01 15:28 41.59938 19.69606 6683 ft 267 kts 355°
2026-05-01 15:28 41.61724 19.68868 7346 ft 275 kts 330°
2026-05-01 15:29 41.63741 19.64572 8774 ft 290 kts 277°
2026-05-01 15:29 41.63489 19.61894 9488 ft 296 kts 249°
2026-05-01 15:29 41.60542 19.58333 10805 ft 301 kts 192°
2026-05-01 15:30 41.56949 19.58290 11365 ft 326 kts 174°
2026-05-01 15:31 41.46212 19.59179 13095 ft 374 kts 187°
2026-05-01 15:31 41.41545 19.56173 14224 ft 381 kts 222°
2026-05-01 15:32 41.38225 19.52280 15206 ft 385 kts 223°
2026-05-01 15:32 41.34183 19.47509 16336 ft 391 kts 223°
2026-05-01 15:33 41.27988 19.40223 17887 ft 405 kts 223°
2026-05-01 15:34 41.21595 19.32756 19474 ft 412 kts 223°